Regional Weather Roundup
Issued by NWS Cleveland, OH

Home | Current Version | Previous Version | Graphics & Text | Print | Product List | Glossary On
Versions: 1 2 3 4 5 6 7 8 9 10 11 12 13 14 15 16 17 18 19 20 21 22 23 24 25 26 27 28 29 30 31 32 33 34 35 36 37 38 39 40 41 42 43 44 45 46 47 48 49 50
000
ASUS41 KCLE 030102
RWRCLE
OHIO REGIONAL WEATHER ROUNDUP
NATIONAL WEATHER SERVICE CLEVELAND, OH
900 PM EDT TUE SEP 02 2014

NOTE: "FAIR" INDICATES FEW OR NO CLOUDS BELOW 12,000 FEET WITH NO
SIGNIFICANT WEATHER AND/OR OBSTRUCTIONS TO VISIBILITY.

OHZ001>008-015>018-024>027-034-035-043-044-030200-
   NORTHWEST OHIO

CITY           SKY/WX    TMP DP  RH WIND       PRES   REMARKS
DEFIANCE       MOCLDY    69  64  84 CALM      29.93R
FINDLAY        MOCLDY    69  66  90 SW7       29.94R
TOLEDO EXPRESS MOCLDY    68  65  90 CALM      29.92R
TOLEDO EXEC    PTCLDY    71  66  84 SE5       29.93R
LIMA           PTCLDY    70  66  87 SE3       29.96R
$$

OHZ009>014-019>023-028>033-038-089-030200-
   NORTHEAST OHIO

CITY           SKY/WX    TMP DP  RH WIND       PRES   REMARKS
CLE-HOPKINS    MOCLDY    66  63  90 SW7       29.95R
CLE-LAKEFRONT  MOCLDY    70  63  78 SW8       29.92R
CUY CO. ARPT   MOCLDY    70  68  94 W8        29.94R
LORAIN-ELYRIA  MOCLDY    67  63  87 SW3       29.95R
ASHTABULA      CLOUDY    68  66  93 CALM      29.94R
AKRON-CANTON   PTCLDY    70  64  81 W3        29.95R
WOOSTER        PTCLDY    67  63  87 N3        29.97R
MANSFIELD      PTCLDY    67  65  93 SW3       29.96R
YOUNGSTOWN     MOCLDY    69  65  86 W3        29.94R
$$

OHZ042-051>053-060>062-070>072-077>081-030200-
  SOUTHWEST OHIO

CITY           SKY/WX    TMP DP  RH WIND       PRES   REMARKS
CINC-COVINGTON PTCLDY    71  69  93 S3        29.97R FOG
CINC-LUNKEN    CLEAR     71  70  96 CALM      29.96R
HAMILTON       CLEAR     69  69 100 CALM      29.97R
DAYTON         PTCLDY    71  66  84 SW3       29.98R
WRIGHT-PAT AFB CLEAR     72  70  93 SW2       29.96R
DAYTON GENERAL CLEAR     71  67  87 CALM      29.97R
WILMINGTON     CLEAR     70  65  84 CALM      29.97R
$$

OHZ036-037-039>041-045>050-054>059-063>069-073>076-082>088-030200-
  CENTRAL AND SOUTHEAST OHIO

CITY           SKY/WX    TMP DP  RH WIND       PRES   REMARKS
COLUMBUS       PTCLDY    73  65  75 W5        29.94R
OSU AIRPORT    PTCLDY    69  66  90 W3        29.96R
BOLTON FIELD   CLEAR     69  67  95 CALM      29.97R
RICKENBACK AFB CLEAR     74  63  69 W3        29.95R
NEWARK         PTCLDY    67  65  93 CALM      29.95R
MARION         CLEAR     68  63  84 CALM      29.96R
LANCASTER      CLEAR     69  66  90 CALM      29.96R
ZANESVILLE     PTCLDY    71  65  81 CALM      29.95R
NEW PHILLY     PTCLDY    70  67  90 CALM      29.96R
$$


USA.gov is the U.S. government's official web portal to all federal, state and local government web resources and services.